New Bedford, MA

8:03 AM EST on February 11, 2016 (GMT -0500)
New Bedford Regional

Weather History for KEWB - February, 2013

Change the Weather History Date:

Wednesday, February 6, 2013

  Actual Average Record
Temperature  
Mean Temperature 32 °F -  
Max Temperature 39 °F - - ()
Min Temperature 26 °F - - ()
Degree Days  
Heating Degree Days 32    
Moisture  
Dew Point 21 °F    
Average Humidity 74    
Maximum Humidity 93    
Minimum Humidity 36    
Precipitation  
Precipitation 0.01 in - - ()
Sea Level Pressure  
Sea Level Pressure 30.00 in    
Wind  
Wind Speed 4 mph (NW)    
Max Wind Speed 18 mph    
Max Gust Speed 25 mph    
Visibility 6 miles    
Events Snow    
T = Trace of Precipitation, MM = Missing Value Source: NWS Daily Summary

Daily Weather History Graph

Daily Weather History Graph

Search for Another Location

Airport or City:

Trip Planner

Search our weather history database for the weather conditions in past years. The results will help you decide how hot, cold, wet, or windy it might be!

Date:

Astronomy

Feb. 06, 2013 Rise Set
Actual Time 6:50 AM EST 5:06 PM EST
Civil Twilight 6:21 AM EST 5:35 PM EST
Nautical Twilight 5:48 AM EST 6:08 PM EST
Astronomical Twilight 5:15 AM EST 6:40 PM EST
Moon 3:32 AM EST (2/6) 1:19 PM EST (2/6)
Length of Visible Light 11h 14m
Length of Day
10h 15m
Waning Crescent, 17% of the Moon is Illuminated
Feb 6
Waning Crescent
Feb 10
New
Feb 17
First Quarter
Feb 25
Full
Mar 4
Last Quarter

Hourly Weather History & Observations

Time (EST) Temp. Windchill Dew Point Humidity Pressure Visibility Wind Dir Wind Speed Gust Speed Precip Events Conditions
12:53 AM 27.0 °F 23.0 °F 24.1 °F 89% 29.91 in 5.0 mi NNE 3.5 mph - N/A   Overcast
1:50 AM 26.6 °F - 24.8 °F 93% 29.91 in 2.0 mi Calm Calm - 0.01 in Snow Light Snow
1:53 AM 28.0 °F - 25.0 °F 88% 29.91 in 2.0 mi Calm Calm - 0.01 in Snow Light Snow
2:08 AM 26.6 °F - 24.8 °F 93% 29.91 in 2.0 mi Calm Calm - 0.00 in Snow Light Snow
2:21 AM 26.6 °F - 24.8 °F 93% 29.91 in 2.5 mi Calm Calm - 0.00 in Snow Light Snow
2:50 AM 26.6 °F 22.6 °F 24.8 °F 93% 29.91 in 3.0 mi North 3.5 mph - 0.00 in Snow Light Snow
2:53 AM 27.0 °F 21.6 °F 25.0 °F 92% 29.91 in 3.0 mi NNW 4.6 mph - 0.00 in Snow Light Snow
3:01 AM 26.6 °F 21.2 °F 24.8 °F 93% 29.90 in 2.0 mi North 4.6 mph - 0.00 in Snow Light Snow
3:13 AM 26.6 °F 21.2 °F 24.8 °F 93% 29.90 in 2.5 mi North 4.6 mph - 0.00 in Snow Light Snow
3:36 AM 26.6 °F 21.2 °F 24.8 °F 93% 29.90 in 3.0 mi North 4.6 mph - 0.00 in Snow Light Snow
3:53 AM 27.0 °F 21.6 °F 25.0 °F 92% 29.91 in 3.0 mi North 4.6 mph - 0.00 in Snow Light Snow
4:03 AM 26.6 °F 22.6 °F 24.8 °F 93% 29.91 in 3.0 mi North 3.5 mph - 0.00 in Snow Light Snow
4:37 AM 26.6 °F - 24.8 °F 93% 29.92 in 5.0 mi Calm Calm - 0.00 in   Overcast
4:53 AM 27.0 °F - 25.0 °F 92% 29.93 in 6.0 mi Calm Calm - 0.00 in   Overcast
5:04 AM 26.6 °F - 24.8 °F 93% 29.93 in 6.0 mi Calm Calm - N/A   Overcast
5:31 AM 28.4 °F - 24.8 °F 86% 29.93 in 5.0 mi Calm Calm - N/A   Overcast
5:53 AM 27.0 °F - 24.1 °F 89% 29.94 in 6.0 mi Calm Calm - N/A   Overcast
6:53 AM 27.0 °F - 25.0 °F 92% 29.96 in 5.0 mi Calm Calm - N/A   Overcast
7:46 AM 28.4 °F - 24.8 °F 86% 29.98 in 2.5 mi Calm Calm - 0.00 in Snow Light Snow
7:53 AM 28.0 °F - 25.0 °F 88% 29.99 in 3.0 mi Calm Calm - 0.00 in Snow Light Snow
8:53 AM 28.9 °F - 26.1 °F 89% 30.00 in 3.0 mi Calm Calm - 0.00 in   Overcast
9:53 AM 30.9 °F 26.2 °F 27.0 °F 85% 30.01 in 5.0 mi West 4.6 mph - N/A   Overcast
10:28 AM 33.8 °F 28.6 °F 28.4 °F 81% 30.01 in 5.0 mi West 5.8 mph - N/A   Scattered Clouds
10:53 AM 35.1 °F 28.6 °F 27.0 °F 72% 30.00 in 10.0 mi West 8.1 mph - N/A   Partly Cloudy
11:53 AM 37.9 °F 30.9 °F 27.0 °F 65% 30.01 in 10.0 mi WNW 10.4 mph 17.3 mph N/A   Clear
12:53 PM 39.0 °F 31.8 °F 21.0 °F 49% 29.99 in 10.0 mi WSW 11.5 mph - N/A   Clear
1:53 PM 39.0 °F 29.6 °F 19.0 °F 45% 30.00 in 10.0 mi WSW 18.4 mph 25.3 mph N/A   Mostly Cloudy
2:53 PM 37.0 °F 29.3 °F 19.0 °F 48% 30.02 in 10.0 mi WNW 11.5 mph 19.6 mph N/A   Mostly Cloudy
3:53 PM 37.9 °F 28.9 °F 16.0 °F 41% 30.04 in 10.0 mi West 16.1 mph 25.3 mph N/A   Partly Cloudy
4:53 PM 36.0 °F 27.5 °F 17.1 °F 46% 30.07 in 10.0 mi West 12.7 mph - N/A   Clear
5:53 PM 34.0 °F 27.2 °F 16.0 °F 48% 30.10 in 10.0 mi WNW 8.1 mph - N/A   Clear
6:53 PM 30.9 °F 24.3 °F 16.0 °F 54% 30.14 in 10.0 mi WNW 6.9 mph - N/A   Clear
7:53 PM 32.0 °F 22.1 °F 10.0 °F 40% 30.18 in 10.0 mi WNW 13.8 mph 21.9 mph N/A   Clear
8:53 PM 30.9 °F 22.8 °F 8.1 °F 38% 30.22 in 10.0 mi WNW 9.2 mph - N/A   Clear
9:53 PM 28.9 °F 19.8 °F 7.0 °F 40% 30.25 in 10.0 mi WNW 10.4 mph - N/A   Clear
10:53 PM 28.9 °F 21.1 °F 5.0 °F 36% 30.26 in 10.0 mi NW 8.1 mph 17.3 mph N/A   Clear
11:53 PM 27.0 °F 19.5 °F 3.0 °F 36% 30.29 in 10.0 mi WNW 6.9 mph - N/A   Clear